Terminal Aerodrome Forecast
Issued by NWS

Home | Current Version | Previous Version | Graphics & Text | Print | Product List | Glossary On
Versions: 1 2 3 4 5 6 7 8 9 10 11 12 13 14 15 16 17 18 19 20 21 22 23 24 25 26 27 28 29 30 31 32 33 34 35 36 37 38 39 40 41 42 43 44 45 46 47 48 49 50
000
FTUS43 KLOT 040526
TAFGYY
TAF
KGYY 040526Z 0406/0506 17010G16KT P6SM SCT040 OVC090
     FM041000 29011G18KT 5SM -SHRA VCTS SCT020 OVC035CB
     FM041600 32007KT 6SM BR VCSH OVC015
     FM041800 36011KT P6SM VCSH OVC015
     FM042100 02010KT P6SM BKN025
     FM050100 03009KT P6SM BKN040=

USA.gov is the U.S. government's official web portal to all federal, state and local government web resources and services.